Meteo orario Volodarskoe

Oggi, 1 Ottobre, Giovedi

Tempo Temperatura Precipitazioni Vento Pressione Umidità
00:00 +17°C° 0 mm 8 m/s 748 mm Hg 62%
01:00 +16°C° 0 mm 8 m/s 748 mm Hg 64%
02:00 +16°C° 0 mm 8 m/s 749 mm Hg 67%
03:00 +15°C° 0 mm 8 m/s 749 mm Hg 68%
04:00 +15°C° 0 mm 8 m/s 749 mm Hg 70%
05:00 +15°C° 0 mm 8 m/s 749 mm Hg 72%
06:00 +15°C° 0 mm 8 m/s 749 mm Hg 71%
07:00 +15°C° 0 mm 9 m/s 749 mm Hg 71%
08:00 +16°C° 0 mm 9 m/s 749 mm Hg 68%
09:00 +16°C° 0 mm 9 m/s 749 mm Hg 64%
10:00 +17°C° 0 mm 8 m/s 749 mm Hg 60%
11:00 +18°C° 0 mm 8 m/s 749 mm Hg 56%
12:00 +17°C° 0.5 mm 6 m/s 749 mm Hg 62%
13:00 +17°C° 0.5 mm 4 m/s 749 mm Hg 69%
14:00 +16°C° 0.5 mm 3 m/s 749 mm Hg 76%
15:00 +14°C° 1.2 mm 3 m/s 749 mm Hg 78%
16:00 +14°C° 1.2 mm 3 m/s 749 mm Hg 81%
17:00 +14°C° 1.2 mm 4 m/s 749 mm Hg 84%
18:00 +15°C° 0.1 mm 4 m/s 749 mm Hg 77%
19:00 +15°C° 0.1 mm 4 m/s 749 mm Hg 69%
20:00 +17°C° 0.1 mm 4 m/s 749 mm Hg 61%
21:00 +16°C° 0 mm 5 m/s 749 mm Hg 61%
22:00 +16°C° 0 mm 5 m/s 749 mm Hg 62%
23:00 +16°C° 0 mm 5 m/s 749 mm Hg 62%

Domani, 2 Ottobre, Venerdi

Tempo Temperatura Precipitazioni Vento Pressione Umidità
00:00 +16°C° 0 mm 5 m/s 750 mm Hg 63%
01:00 +15°C° 0 mm 5 m/s 750 mm Hg 65%
02:00 +15°C° 0 mm 6 m/s 750 mm Hg 66%
03:00 +15°C° 0 mm 5 m/s 750 mm Hg 67%
04:00 +14°C° 0 mm 5 m/s 750 mm Hg 68%
05:00 +14°C° 0 mm 5 m/s 750 mm Hg 69%
06:00 +15°C° 0 mm 5 m/s 751 mm Hg 67%
07:00 +15°C° 0 mm 5 m/s 751 mm Hg 64%
08:00 +16°C° 0 mm 6 m/s 751 mm Hg 61%
09:00 +17°C° 0 mm 6 m/s 751 mm Hg 59%
10:00 +19°C° 0 mm 5 m/s 752 mm Hg 56%
11:00 +19°C° 0 mm 5 m/s 752 mm Hg 53%
12:00 +20°C° 0 mm 5 m/s 752 mm Hg 51%
13:00 +21°C° 0 mm 4 m/s 752 mm Hg 49%
14:00 +21°C° 0 mm 4 m/s 752 mm Hg 47%
15:00 +20°C° 0 mm 3 m/s 752 mm Hg 51%
16:00 +20°C° 0 mm 2 m/s 753 mm Hg 54%
17:00 +19°C° 0 mm 2 m/s 753 mm Hg 57%
18:00 +18°C° 0 mm 2 m/s 753 mm Hg 61%
19:00 +18°C° 0 mm 3 m/s 753 mm Hg 64%
20:00 +17°C° 0 mm 4 m/s 754 mm Hg 67%
21:00 +17°C° 0 mm 4 m/s 754 mm Hg 72%
22:00 +15°C° 0 mm 4 m/s 754 mm Hg 77%
23:00 +15°C° 0 mm 4 m/s 754 mm Hg 81%

Dopodomani, 3 Ottobre, Sabato

Tempo Temperatura Precipitazioni Vento Pressione Umidità
00:00 +16°C° 0.1 mm 3 m/s 754 mm Hg 82%
01:00 +14°C° 0.1 mm 3 m/s 754 mm Hg 83%
02:00 +14°C° 0.1 mm 3 m/s 754 mm Hg 84%
03:00 +14°C° 0 mm 4 m/s 755 mm Hg 86%
04:00 +14°C° 0 mm 4 m/s 755 mm Hg 88%
05:00 +13°C° 0 mm 4 m/s 755 mm Hg 90%
06:00 +14°C° 0 mm 5 m/s 755 mm Hg 86%
07:00 +15°C° 0 mm 5 m/s 755 mm Hg 81%
08:00 +16°C° 0 mm 6 m/s 756 mm Hg 77%
09:00 +17°C° 0 mm 5 m/s 756 mm Hg 72%
10:00 +19°C° 0 mm 5 m/s 756 mm Hg 68%
11:00 +20°C° 0 mm 5 m/s 756 mm Hg 63%
12:00 +20°C° 0 mm 5 m/s 756 mm Hg 59%
13:00 +21°C° 0 mm 4 m/s 756 mm Hg 55%
14:00 +21°C° 0 mm 4 m/s 756 mm Hg 52%
15:00 +21°C° 0 mm 3 m/s 756 mm Hg 53%
16:00 +20°C° 0 mm 3 m/s 756 mm Hg 54%
17:00 +19°C° 0 mm 2 m/s 756 mm Hg 56%
18:00 +18°C° 0 mm 3 m/s 756 mm Hg 56%
19:00 +18°C° 0 mm 4 m/s 756 mm Hg 56%
20:00 +16°C° 0 mm 5 m/s 756 mm Hg 57%
21:00 +16°C° 0 mm 5 m/s 756 mm Hg 60%
22:00 +15°C° 0 mm 5 m/s 756 mm Hg 63%
23:00 +15°C° 0 mm 5 m/s 756 mm Hg 66%

4 Ottobre, Domenica

Tempo Temperatura Precipitazioni Vento Pressione Umidità
00:00 +14°C° 0 mm 4 m/s 756 mm Hg 66%
01:00 +14°C° 0 mm 4 m/s 756 mm Hg 67%
02:00 +13°C° 0 mm 4 m/s 757 mm Hg 67%
03:00 +13°C° 0 mm 4 m/s 757 mm Hg 67%
04:00 +12°C° 0 mm 4 m/s 757 mm Hg 67%
05:00 +12°C° 0 mm 4 m/s 757 mm Hg 67%
06:00 +13°C° 0 mm 5 m/s 757 mm Hg 63%
07:00 +14°C° 0 mm 5 m/s 757 mm Hg 58%
08:00 +16°C° 0 mm 6 m/s 757 mm Hg 54%
09:00 +17°C° 0 mm 6 m/s 757 mm Hg 51%
10:00 +20°C° 0 mm 6 m/s 757 mm Hg 49%
11:00 +21°C° 0 mm 7 m/s 757 mm Hg 46%
12:00 +21°C° 0 mm 6 m/s 757 mm Hg 43%
13:00 +22°C° 0 mm 6 m/s 757 mm Hg 40%
14:00 +22°C° 0 mm 6 m/s 757 mm Hg 37%
15:00 +21°C° 0 mm 6 m/s 757 mm Hg 39%
16:00 +20°C° 0 mm 5 m/s 757 mm Hg 42%
17:00 +19°C° 0 mm 5 m/s 757 mm Hg 44%
18:00 +17°C° 0 mm 5 m/s 757 mm Hg 40%
19:00 +17°C° 0 mm 5 m/s 758 mm Hg 36%
20:00 +16°C° 0 mm 5 m/s 758 mm Hg 33%
21:00 +16°C° 0 mm 5 m/s 758 mm Hg 31%
22:00 +15°C° 0 mm 5 m/s 758 mm Hg 29%
23:00 +15°C° 0 mm 5 m/s 758 mm Hg 28%

5 Ottobre, Lunedi

Tempo Temperatura Precipitazioni Vento Pressione Umidità
00:00 +14°C° 0 mm 5 m/s 758 mm Hg 28%
01:00 +14°C° 0 mm 6 m/s 758 mm Hg 29%
02:00 +14°C° 0 mm 6 m/s 758 mm Hg 29%
03:00 +13°C° 0 mm 6 m/s 758 mm Hg 31%
04:00 +13°C° 0 mm 6 m/s 758 mm Hg 32%
05:00 +11°C° 0 mm 6 m/s 759 mm Hg 33%
06:00 +13°C° 0 mm 6 m/s 759 mm Hg 34%
07:00 +14°C° 0 mm 7 m/s 759 mm Hg 34%
08:00 +15°C° 0 mm 7 m/s 759 mm Hg 35%
09:00 +17°C° 0 mm 7 m/s 759 mm Hg 33%
10:00 +18°C° 0 mm 8 m/s 759 mm Hg 30%
11:00 +21°C° 0 mm 8 m/s 759 mm Hg 28%
12:00 +22°C° 0 mm 8 m/s 759 mm Hg 25%
13:00 +22°C° 0 mm 7 m/s 759 mm Hg 23%
14:00 +23°C° 0 mm 7 m/s 759 mm Hg 21%
15:00 +22°C° 0 mm 7 m/s 758 mm Hg 21%
16:00 +21°C° 0 mm 6 m/s 758 mm Hg 22%
17:00 +20°C° 0 mm 5 m/s 758 mm Hg 23%
18:00 +19°C° 0 mm 5 m/s 758 mm Hg 24%
19:00 +17°C° 0 mm 5 m/s 758 mm Hg 24%
20:00 +16°C° 0 mm 5 m/s 759 mm Hg 25%
21:00 +16°C° 0 mm 6 m/s 759 mm Hg 28%
22:00 +15°C° 0 mm 6 m/s 759 mm Hg 32%
23:00 +15°C° 0 mm 6 m/s 758 mm Hg 35%

6 Ottobre, Martedi

Tempo Temperatura Precipitazioni Vento Pressione Umidità
00:00 +14°C° 0 mm 6 m/s 758 mm Hg 39%
01:00 +14°C° 0 mm 6 m/s 758 mm Hg 43%
02:00 +13°C° 0 mm 6 m/s 758 mm Hg 47%
03:00 +13°C° 0 mm 6 m/s 758 mm Hg 50%
04:00 +13°C° 0 mm 6 m/s 758 mm Hg 52%
05:00 +11°C° 0 mm 6 m/s 758 mm Hg 55%
06:00 +12°C° 0 mm 7 m/s 758 mm Hg 52%
07:00 +14°C° 0 mm 7 m/s 758 mm Hg 50%
08:00 +15°C° 0 mm 7 m/s 758 mm Hg 47%
09:00 +17°C° 0 mm 8 m/s 758 mm Hg 41%
10:00 +18°C° 0 mm 8 m/s 758 mm Hg 36%
11:00 +21°C° 0 mm 8 m/s 758 mm Hg 30%
12:00 +21°C° 0 mm 8 m/s 758 mm Hg 27%
13:00 +22°C° 0 mm 8 m/s 757 mm Hg 25%
14:00 +23°C° 0 mm 8 m/s 757 mm Hg 22%
15:00 +22°C° 0 mm 7 m/s 757 mm Hg 23%
16:00 +21°C° 0 mm 6 m/s 757 mm Hg 25%
17:00 +19°C° 0 mm 6 m/s 756 mm Hg 26%
18:00 +19°C° 0 mm 6 m/s 756 mm Hg 29%
19:00 +17°C° 0 mm 6 m/s 756 mm Hg 31%
20:00 +17°C° 0 mm 6 m/s 756 mm Hg 33%
21:00 +16°C° 0 mm 6 m/s 756 mm Hg 36%
22:00 +16°C° 0 mm 6 m/s 756 mm Hg 38%
23:00 +15°C° 0 mm 7 m/s 756 mm Hg 41%
Mostrare altro